Regional Weather Roundup
Issued by NWS Bismarck, ND

Home | Current Version | Previous Version | Text Only | Print | Product List | Glossary On
Versions: 1 2 3 4 5 6 7 8 9 10 11 12 13 14 15 16 17 18 19 20 21 22 23 24 25 26 27 28 29 30 31 32 33 34 35 36 37 38 39 40 41 42 43 44 45 46 47 48 49 50
000
ASUS43 KBIS 201402
RWRBIS

NWR BROADCAST TEXT
NATIONAL WEATHER SERVICE BISMARCK ND
800 AM CST TUE FEB 20 2018

NOTE: "FAIR" INDICATES FEW OR NO CLOUDS BELOW 12,000 FEET WITH NO
SIGNIFICANT WEATHER AND/OR OBSTRUCTIONS TO VISIBILITY.


CITY           SKY/WX    TMP DP  RH WIND       PRES   REMARKS
WILLISTON      FLURRIES  -1  -6  79 W12       30.11R WCI -18
MINOT          MOCLDY     1  -4  79 SW7       30.10R HAZE    WCI -12
MINOT AFB      PTCLDY    -2  -7  81 W7        30.09S WCI -16
BISMARCK       FLURRIES   5   0  79 NW7       30.13S WCI  -7
DICKINSON      FAIR      -9 -13  83 W10       30.05R FOG     WCI -27
GARRISON         N/A     -3  -7  82 W8        30.10R WCI -18
HETTINGER ARPT CLOUDY    -6 -11  79 NW9       30.08R WCI -23
JAMESTOWN      LGT SNOW   3   0  87 NW15      30.08R FOG     WCI -16
CARRINGTON     LGT SNOW   3   0  85 NW12      30.11R WCI -13
HAZEN            N/A     -6  -8  92 SW8       30.15R WCI -21
LINTON         LGT SNOW   3  -2  78 NW10      30.12S WCI -12
MANDAN           N/A      1  -2  85 NW5       30.11R WCI  -8
OAKES            N/A      3   0  85 N15       30.07R WCI -15
RUGBY          CLOUDY     0  -4  85 W7        30.10F FOG     WCI -13
STANLEY        FAIR      -9 -13  84 W7        30.08R WCI -24
TIOGA          FAIR      -4  -8  84 SW10      30.07R WCI -21
WATFORD CITY   FAIR      -8 -11  84 SW8       30.11R WCI -23
$$

CITY           SKY/WX    TMP DP  RH WIND       PRES   REMARKS
GRAND FORKS    LGT SNOW   5   1  83 N16       30.11S FOG     WCI -14
GRAND FORKS AF LGT SNOW   4  -1  79 N13       30.10F FOG     WCI -13
DEVILS LAKE    LGT SNOW   3  -1  83 NW9       30.09R FOG     WCI -12
FARGO          LGT SNOW   5   2  87 N20       30.07R VSB 1   WCI -15
CANDO          FAIR       3   0  85 NW8       30.10F FOG     WCI -10
CAVALIER       LGT SNOW   3   0  85 N6        30.12F WCI  -8
GRAFTON        FOG        3   0  85 N12       30.14S VSB 3/4 WCI -13
GWINNER          N/A      5   0  78 NW17      30.06R HAZE    WCI -14
LANGDON        LGT SNOW   3   1  92 NW7       30.06S WCI  -9
ROLLA          LGT SNOW   1  -4  78 NW5       30.06S WCI  -8
WALHALLA       LGT SNOW   3   3 100 NW5       30.12S WCI  -6
$$

CITY           SKY/WX    TMP DP  RH WIND       PRES   REMARKS
ABERDEEN       LGT SNOW   5   1  83 N15       30.09R FOG     WCI -13
MOBRIDGE       LGT SNOW   5   0  79 NW9       30.08S WCI  -9
BUFFALO          N/A    -10 -15  78 W7        29.97S WCI -25
RAPID CITY     PTCLDY    -6 -10  83 NW9       30.04R WCI -23
GLASGOW        CLOUDY   -13 -17  82 NW5       30.09S WCI -25
SIDNEY         PTCLDY    -3  -8  79 CALM      30.13R
WOLF POINT     CLOUDY    -9 -14  78 SW7       30.14R WCI -24
GLENDIVE       MOCLDY    -4  -9  79 W6        30.11R WCI -16
MILES CITY     CLEAR     -8 -11  86 W10       30.11R WCI -26
BAKER          CLOUDY    -9 -12  87 VRB3      30.06R FOG
$$

CITY           SKY/WX    TMP DP  RH WIND       PRES   REMARKS
BILLINGS       PTCLDY   -12 -17  78 SW16      30.00S WCI -35
GREAT FALLS    PTCLDY   -10 -17  71 SW17      29.98S WCI -34
$$





USA.gov is the U.S. government's official web portal to all federal, state and local government web resources and services.